STARLINK-34121, 63961

Orbit data source: Space-Track

STARLINK-34121, 63961 is a payload satellite owned by SpaceX/Seattle (US) in LEO that was launched on Tue, 13 May 2025 UTC via an FALCON 9 launch vehicle from the Air Force Eastern Test Range (AFETR). Payload-class satellites include a variety of spacecraft equipped with specific instruments for various scientific and technological missions. These include communications satellites like Starlink; space stations such as the ISS; scientific satellites like the Hubble; Earth observation satellites from companies like Planet Labs, Umbra, and HawkEye 360; GPS; miniature CubeSats for education and research; and military/defense satellites.

Loading next visibility...
Identifier
63961, 2025-099K
Orbit
LEO
Country
Flag of USUS
Related business
Manufacturer
SpaceX/Seattle
Mission
Operational Commercial Communications
Bus & Motor
STARLINK V2MO, Unknown motor
Mass
575 kg wet, ~530 kg dry
Launch date (UTC)
2025-05-13 (7 months ago)
Launch vehicle
FALCON 9
Launch site
Air Force Eastern Test Range (AFETR)
Object type
Payload
Rocket body
Debris
Shape & HBR
Box + 2 Pan, 17.7 m
Radar Cross Section
36.964 m², Large (>1 m²)

Expand to show TLE details & history
Last TLE update: 1 day ago

TLE from 1 day ago
0 STARLINK-34121
1 63961U 25099K   25346.25187639  .00032380  00000-0  11825-2 0  9996
2 63961  42.9992 310.0404 0001473 263.1421  96.9263 15.27537779 33967
Epoch: 2025-12-12T06:02Z
TLE epoch observation values (Epoch: 2025-12-12T06:02:42.120Z)
Latitude
-0.00001°
Longitude
138.16872°
Altitude
483.073 km
Speed
7.626 km/s
True Right ascension
20h 40m 09s
True Declination
0° 00' 00"
Sunlit
Object was in daylight at epoch
Visualization orbit readout
Latitude
Unknown
Longitude
Unknown
Altitude
Unknown
Speed
Unknown
Apparent Right ascension
Unknown
Apparent Declination
Unknown
Sunlit
N/A
Visualization observer readout
Local Sidereal Time
07:35:04
Azimuth
Unknown
Elevation
Unknown
Doppler factor
Unknown
Orbital elements
Apogee altitude
486.132 km
Perigee altitude
484.11 km
Semi-major axis
6,863.258 km
Eccentricity
0.00015
Inclination
42.9992°
RAAN
310.0404°
Arg. of periapsis
263.1421°
True anomaly
96.94306°
Mean anomaly
96.9263°
Eccentric anomaly
96.93468°
Mean motion
3.81722 °/min
Orbital period
94.31 mins
BSTAR
0.0011825
Loading maneuver chart data...
Computing Atmospheric mass density...
Loading historical data...
Loading historical data...
Loading historical data...
Loading historical data...
Loading historical data...
Loading historical data...
Loading historical data...

Documentation

Showing up to 5 results
|